Location: Orange
(33.2833°S, 149.1000°E)
Time: 00:34:28
(UTC+11:00)

X-37B - Pass Details

Date: 13 December 2021
Orbit: 334 x 337 km, 45.0° (Epoch: 11 January)

Event Time Altitude Azimuth Distance (km) Brightness Sun altitude
Exits shadow 05:00:44 - 263° (W) 1,468 3.1 -9.2°
Reaches altitude 10° 05:01:16 10° 257° (WSW) 1,289 2.8 -9.1°
Maximum altitude 05:03:35 21° 203° (SSW) 830 2.4 -8.7°
Drops below altitude 10° 05:05:56 10° 150° (SSE) 1,298 4.4 -8.3°
Sets 05:08:14 0° 133° (SE) 2,142 6.6 -7.9°
